[Iaude] MPEC J270: 2024 JX12 [a=2.55,e=0.63,i=10.9,H=22.3]

mpec at cfa.harvard.edu mpec at cfa.harvard.edu
Sat May 11 18:08:16 EDT 2024


M.P.E.C. 2024-J270                                 Issued 2024 May 11, 22:06 UT

     The Minor Planet Electronic Circulars contain information on unusual
         minor planets, routine data on comets and natural satellites,
         and occasional editorial announcements.  They are published
    on behalf of Division F of the International Astronomical Union by the
          Minor Planet Center, Smithsonian Astrophysical Observatory,
                          Cambridge, MA 02138, U.S.A.
			  
             Prepared using the Tamkin Foundation Computer Network

                              MPC at CFA.HARVARD.EDU
            URL https://www.minorplanetcenter.net/    ISSN 1523-6714

                                   2024 JX12                                    


Observations:
     K24J12X* C2024 05 09.54460414 55 33.531+19 54 33.67         21.81wXEJ270F51
     K24J12X  C2024 05 09.55733314 55 32.571+19 54 49.82         21.99wXEJ270F51
     K24J12X  C2024 05 09.57007314 55 31.614+19 55 06.05         22.02wXEJ270F51
     K24J12X KC2024 05 10.17359614 54 52.682+20 08 13.16         21.42GVEJ270V06
     K24J12X KC2024 05 10.17546114 54 52.535+20 08 15.61         21.46GVEJ270V06
     K24J12X KC2024 05 10.17732614 54 52.398+20 08 18.10         21.44GVEJ270V06
     K24J12X KC2024 05 10.17919114 54 52.254+20 08 20.62         21.51GVEJ270V06
     K24J12X  C2024 05 10.27686714 54 44.443+20 10 30.12         21.3 GVEJ270H01
     K24J12X  C2024 05 10.28106114 54 44.100+20 10 35.66         21.4 GVEJ270H01
     K24J12X  C2024 05 10.28887914 54 43.483+20 10 45.87         21.4 GVEJ270H01
     K24J12X  C2024 05 10.29721814 54 42.811+20 10 56.77         21.4 GVEJ270H01
     K24J12X 1C2024 05 11.02516 14 53 50.58 +20 26 44.2          21.6 VXEJ270033
     K24J12X 1C2024 05 11.02878 14 53 50.30 +20 26 48.8          21.9 VXEJ270033
     K24J12X 1C2024 05 11.03240 14 53 50.01 +20 26 53.6          22.3 VXEJ270033
     K24J12X 1C2024 05 11.90182 14 52 46.86 +20 45 55.1          21.6 VXEJ270033
     K24J12X 1C2024 05 11.90544 14 52 46.55 +20 45 59.7          21.5 VXEJ270033
     K24J12X 1C2024 05 11.90906 14 52 46.26 +20 46 04.4          21.6 VXEJ270033

Observer details:
033 Karl Schwarzschild Observatory, Tautenburg.  Observers S. Melnikov, C.
    Hogner, F. Ludwig, M. Hartmann, B. Stecklum.  Measurer B. Stecklum.
    1.34-m f/3 Schmidt + CCD.
F51 Pan-STARRS 1, Haleakala.  Observers J. Herman, T. Lowe, P. Minguez, A.
    Schultz, I. Smith.  Measurers K. Chambers, T. de Boer, J. Fairlamb, H.
    Gao, M. Huber, C.-C. Lin, E. Magnier, Y. Ramanjooloo, R. Wainscoat, R.
    Weryk.  1.8-m Ritchey-Chretien + CCD.
H01 Magdalena Ridge Observatory, Socorro.  Observers W. H. Ryan, E. V. Ryan.
    Measurer W. H. Ryan.  2.4-m f/8.9 Ritchey-Chretien + CCD.
V06 Catalina Sky Survey-Kuiper.  Observer H. Groeller.  Measurers T. Beuden,
    V. F. Carvajal, D. Fay, J. B. Fazekas, D. C. Fuls, A. R. Gibbs, A. D.
    Grauer, H. Groeller, J. K. Hogan, R. A. Kowalski, S. M. Larson, G. J.
    Leonard, D. Rankin, R. L. Seaman, F. C. Shelly, K. W. Wierzchos.  1.55-m
    reflector + 1K CCD.

Orbital elements:
2024 JX12                                                Earth MOID = 0.0418 AU
Epoch 2024 Mar. 31.0 TT = JDT 2460400.5                 MPC                     
M 334.31273              (2000.0)            P               Q                  
n   0.24273922     Peri.  202.57719     +0.47843634     +0.85772527             
a   2.5451268      Node    96.45749     -0.77397575     +0.51311867             
e   0.6347181      Incl.   10.91581     -0.41480141     +0.03188401             
P   4.06           H   22.38          G   0.15           U   9                  
Residuals in seconds of arc
240509 F51  0.0   0.0     240510 V06  0.0   0.1-    240511 033  0.1+  0.2+
240509 F51  0.0   0.0     240510 H01  0.0   0.0     240511 033  0.0   0.3+
240509 F51  0.0   0.0     240510 H01  0.1-  0.1+    240511 033  0.0   0.1+
240510 V06  0.0   0.0     240510 H01  0.0   0.0     240511 033  0.1-  0.2-
240510 V06  0.1-  0.1-    240510 H01  0.0   0.0     240511 033  0.0   0.2-
240510 V06  0.0   0.1-    240511 033  0.0   0.3+

Ephemeris:
2024 JX12                a,e,i = 2.55, 0.63, 11                  q = 0.9297
Date    TT    R. A. (2000) Decl.     Delta      r    Elong.  Phase     V
2024 04 11    15 09 03.5 +10 22 23   0.5991  1.5387   146.8    20.9    23.2
...
2024 04 26    15 06 19.8 +15 05 34   0.4457  1.4062   148.7    21.8    22.4
...
2024 05 04    15 01 03.0 +17 54 07   0.3759  1.3364   145.9    25.0    22.0
...
2024 05 10    14 55 03.7 +20 04 32   0.3283  1.2850   142.2    28.8    21.8
2024 05 11    14 53 53.0 +20 26 24   0.3207  1.2765   141.4    29.6    21.7
2024 05 12    14 52 39.2 +20 48 17   0.3132  1.2681   140.7    30.3    21.7
...
2024 05 18    14 44 04.8 +22 59 50   0.2699  1.2183   135.4    35.7    21.4
...
2024 05 26    14 28 44.7 +25 58 29   0.2157  1.1549   126.7    44.7    21.1
...
2024 06 10    13 31 38.0 +32 51 23   0.1209  1.0493   103.1    70.5    20.4

A. U. Tomatic                (C) Copyright 2024 MPC           M.P.E.C. 2024-J270





More information about the Iaude mailing list